FW7828 Weather Reports


time (UTC)temp
C
wind
direction
speed
KPH
gust
KPH
rain 1hr
cm
rain 24hr
cm
rain mn
cm
humidity
%
barometer
mb
20260505152816 22 139 4.8 4.8 0.00 0.00 0.00 65 1016.4
20260505152313 22 158 4.8 4.8 0.00 0.00 0.00 63 1016.6
20260505151808 22 139 4.8 4.8 0.00 0.00 0.00 63 1016.8
20260505151305 22 142 3.2 3.2 0.00 0.00 0.00 64 1016.7
20260505150802 22 174 4.8 8.0 0.00 0.00 0.00 63 1016.6
20260505150259 22 162 4.8 4.8 0.00 0.00 0.00 65 1016.6
20260505140229 20 178 3.2 4.8 0.00 0.00 0.00 70 1016.8
20260505130153 18 162 4.8 9.7 0.00 0.00 0.00 74 1016.8
20260505124643 18 144 3.2 4.8 0.00 0.00 0.00 76 1017.1
20260505124139 18 145 1.6 3.2 0.00 0.00 0.00 78 1017.1
20260505123629 18 157 6.4 8.0 0.00 0.00 0.00 78 1017.0
20260505123126 17 147 3.2 3.2 0.00 0.00 0.00 78 1016.7
20260505122623 17 157 3.2 4.8 0.00 0.00 0.00 80 1016.9
20260505122120 17 168 0.0 0.0 0.00 0.00 0.00 81 1016.6
20260505121616 17 184 1.6 1.6 0.00 0.00 0.00 81 1016.8
20260505121113 16 140 0.0 0.0 0.00 0.00 0.00 82 1017.0
20260505120610 16 178 1.6 1.6 0.00 0.00 0.00 81 1016.9
20260505120106 16 173 6.4 9.7 0.00 0.00 0.00 82 1016.8
20260505115600 16 350 0.0 0.0 0.00 0.00 0.00 82 1017.1
20260505115058 16 174 1.6 3.2 0.00 0.00 0.00 82 1016.8
20260505114555 16 153 0.0 0.0 0.00 0.00 0.00 82 1016.9
20260505114051 16 187 4.8 8.0 0.00 0.00 0.00 83 1016.7
20260505113547 16 163 0.0 0.0 0.00 0.00 0.00 83 1016.7
20260505113044 16 208 0.0 0.0 0.00 0.00 0.00 83 1016.6
20260505112540 16 262 0.0 1.6 0.00 0.00 0.00 83 1016.6
20260505112038 15 176 1.6 3.2 0.00 0.00 0.00 84 1016.6
20260505111532 15 227 0.0 0.0 0.00 0.00 0.00 84 1016.7
20260505111028 15 213 0.0 0.0 0.00 0.00 0.00 85 1016.5
20260505110525 15 147 0.0 0.0 0.00 0.00 0.00 86 1016.5
20260505101958 14 289 1.6 1.6 0.00 0.00 0.00 88 1016.0
20260505101455 14 279 0.0 0.0 0.00 0.00 0.00 88 1015.8
20260505100952 14 313 0.0 0.0 0.00 0.00 0.00 88 1015.8
20260505100449 14 323 0.0 0.0 0.00 0.00 0.00 87 1015.8
20260505095945 14 339 0.0 0.0 0.00 0.00 0.00 87 1015.5
20260505095442 14 303 0.0 0.0 0.00 0.00 0.00 87 1015.6
20260505094938 14 309 0.0 0.0 0.00 0.00 0.00 87 1015.8
20260505094435 14 310 1.6 1.6 0.00 0.00 0.00 87 1015.8
20260505093931 15 358 0.0 0.0 0.00 0.00 0.00 86 1015.7
20260505093428 15 319 0.0 0.0 0.00 0.00 0.00 86 1015.5
20260505092925 15 327 0.0 1.6 0.00 0.00 0.00 86 1015.4
20260505092423 15 146 0.0 1.6 0.00 0.00 0.00 86 1015.5
20260505091920 15 276 0.0 0.0 0.00 0.00 0.00 86 1015.5
20260505091418 15 246 0.0 0.0 0.00 0.00 0.00 86 1015.5
20260505090915 15 250 3.2 4.8 0.00 0.00 0.00 85 1015.3
20260505090413 15 198 0.0 0.0 0.00 0.00 0.00 85 1015.5
20260505085910 15 218 1.6 1.6 0.00 0.00 0.00 85 1015.4
20260505085408 15 182 4.8 8.0 0.00 0.00 0.00 86 1015.4
20260505084906 15 351 0.0 0.0 0.00 0.00 0.00 86 1015.4
20260505084404 15 317 0.0 0.0 0.00 0.00 0.00 85 1015.2
20260505083902 15 281 0.0 0.0 0.00 0.00 0.00 85 1015.3
20260505083400 15 242 0.0 1.6 0.00 0.00 0.00 85 1015.2
20260505082856 15 278 0.0 0.0 0.00 0.00 0.00 85 1015.5
20260505082351 15 341 0.0 1.6 0.00 0.00 0.00 85 1015.4
20260505081848 15 291 0.0 0.0 0.00 0.00 0.00 84 1015.1
20260505081345 15 256 1.6 1.6 0.00 0.00 0.00 84 1015.0
20260505080842 15 236 1.6 1.6 0.00 0.00 0.00 84 1015.2
20260505080338 15 267 0.0 0.0 0.00 0.00 0.00 84 1015.2
20260505075833 15 229 0.0 1.6 0.00 0.00 0.00 84 1015.0
20260505075330 15 205 1.6 1.6 0.00 0.00 0.00 85 1015.3
20260505074828 15 247 0.0 0.0 0.00 0.00 0.00 85 1015.0
20260505074325 15 333 0.0 1.6 0.00 0.00 0.00 85 1015.1
20260505073822 15 266 0.0 0.0 0.00 0.00 0.00 84 1014.9
20260505073320 15 276 0.0 0.0 0.00 0.00 0.00 84 1014.9
20260505072817 15 241 0.0 0.0 0.00 0.00 0.00 83 1015.0
20260505072313 15 346 0.0 1.6 0.00 0.00 0.00 82 1015.1
20260505071809 15 237 1.6 1.6 0.00 0.00 0.00 82 1014.8
20260505071306 15 288 0.0 0.0 0.00 0.00 0.00 82 1014.9
20260505070804 15 206 1.6 1.6 0.00 0.00 0.00 83 1014.8
20260505070300 15 203 0.0 0.0 0.00 0.00 0.00 82 1015.1
20260505065755 15 82 1.6 1.6 0.00 0.00 0.00 82 1014.7
20260505065252 15 223 1.6 1.6 0.00 0.00 0.00 82 1014.8
20260505064749 15 215 1.6 3.2 0.00 0.00 0.00 82 1014.7
20260505064246 15 231 0.0 1.6 0.00 0.00 0.00 82 1014.8
20260505063744 15 209 0.0 0.0 0.00 0.00 0.00 81 1015.1
20260505063240 15 283 0.0 0.0 0.00 0.00 0.00 81 1014.7
20260505062737 16 208 0.0 1.6 0.00 0.00 0.00 81 1014.6
20260505062234 16 303 0.0 1.6 0.00 0.00 0.00 81 1014.9
20260505061731 16 228 1.6 1.6 0.00 0.00 0.00 81 1015.0
20260505061229 16 233 4.8 8.0 0.00 0.00 0.00 80 1015.0
20260505060726 16 176 0.0 0.0 0.00 0.00 0.00 80 1015.0
20260505060223 16 226 0.0 0.0 0.00 0.00 0.00 80 1014.9
20260505055718 16 238 1.6 1.6 0.00 0.00 0.00 80 1015.0
20260505055215 16 233 1.6 3.2 0.00 0.00 0.00 80 1015.1
20260505054712 16 220 1.6 1.6 0.00 0.00 0.00 80 1015.1
20260505054210 16 218 3.2 4.8 0.00 0.00 0.00 82 1015.1
20260505053708 16 205 0.0 1.6 0.00 0.00 0.00 80 1015.1
20260505053204 16 229 0.0 0.0 0.00 0.00 0.00 79 1015.1
20260505052701 16 211 1.6 1.6 0.00 0.00 0.00 78 1015.0
20260505052158 16 243 1.6 1.6 0.00 0.00 0.00 78 1015.1
20260505051655 16 197 1.6 1.6 0.00 0.00 0.00 77 1015.3
20260505051153 17 187 1.6 3.2 0.00 0.00 0.00 77 1015.2
20260505050651 17 260 0.0 1.6 0.00 0.00 0.00 77 1015.4
20260505050149 17 237 1.6 1.6 0.00 0.00 0.00 76 1015.2
20260505041619 17 238 0.0 1.6 0.00 0.00 0.00 75 1015.2
20260505041116 17 277 1.6 1.6 0.00 0.00 0.00 74 1015.2
20260505040613 17 181 0.0 0.0 0.00 0.00 0.00 74 1015.3
20260505040110 17 297 1.6 3.2 0.00 0.00 0.00 74 1015.4
20260505035606 18 252 1.6 1.6 0.00 0.00 0.00 74 1015.2
20260505035103 18 224 3.2 8.0 0.00 0.00 0.00 74 1015.4
20260505034559 18 219 3.2 3.2 0.00 0.00 0.00 73 1015.1
20260505034056 18 185 1.6 4.8 0.00 0.00 0.00 74 1015.0
20260505033553 18 224 1.6 3.2 0.00 0.00 0.00 73 1014.9
20260505033052 18 228 1.6 1.6 0.00 0.00 0.00 73 1014.8
20260505032549 18 205 0.0 1.6 0.00 0.00 0.00 72 1014.8
20260505032045 18 242 3.2 3.2 0.00 0.00 0.00 72 1014.9
20260505031543 18 178 6.4 9.7 0.00 0.00 0.00 72 1014.8
20260505031039 18 242 4.8 8.0 0.00 0.00 0.00 73 1015.0
20260505030536 18 223 1.6 1.6 0.00 0.00 0.00 73 1014.9
20260505030032 18 214 1.6 3.2 0.00 0.00 0.00 72 1015.1
20260505025528 18 242 3.2 3.2 0.00 0.00 0.00 73 1014.9
20260505025027 18 179 1.6 3.2 0.00 0.00 0.00 73 1015.0
20260505024524 18 200 3.2 3.2 0.00 0.00 0.00 72 1015.0
20260505024021 18 214 4.8 4.8 0.00 0.00 0.00 72 1014.9
20260505023518 18 237 3.2 4.8 0.00 0.00 0.00 72 1014.9
20260505023015 18 210 3.2 4.8 0.00 0.00 0.00 73 1015.0
20260505022513 18 206 4.8 8.0 0.00 0.00 0.00 72 1015.0
20260505022010 18 198 4.8 9.7 0.00 0.00 0.00 73 1014.9
20260505021506 18 237 4.8 8.0 0.00 0.00 0.00 73 1014.9
20260505021003 18 176 1.6 3.2 0.00 0.00 0.00 72 1015.0
20260505020457 18 205 6.4 8.0 0.00 0.00 0.00 73 1015.0
20260505015954 18 174 8.0 16.1 0.00 0.00 0.00 71 1015.1
20260505015452 18 188 6.4 8.0 0.00 0.00 0.00 72 1015.0
20260505014949 18 139 9.7 11.3 0.00 0.00 0.00 72 1014.7
20260505014445 18 221 3.2 3.2 0.00 0.00 0.00 71 1014.7
20260505013943 18 207 3.2 4.8 0.00 0.00 0.00 72 1014.6
20260505013440 18 208 6.4 8.0 0.00 0.00 0.00 71 1014.7
20260505012937 18 181 4.8 4.8 0.00 0.00 0.00 70 1014.7
20260505012435 18 190 4.8 8.0 0.00 0.00 0.00 72 1014.6
20260505011931 18 177 4.8 8.0 0.00 0.00 0.00 72 1014.5
20260505011427 18 171 3.2 4.8 0.00 0.00 0.00 72 1014.5
20260505010924 18 246 4.8 8.0 0.00 0.00 0.00 72 1014.5
20260505010420 18 198 1.6 1.6 0.00 0.00 0.00 70 1014.5
20260505005916 19 169 3.2 3.2 0.00 0.00 0.00 71 1014.6
20260505005413 19 185 3.2 4.8 0.00 0.00 0.00 71 1014.3
20260505004911 19 164 4.8 9.7 0.00 0.00 0.00 71 1014.1
20260505004407 19 184 8.0 11.3 0.00 0.00 0.00 69 1014.1
20260505003904 19 148 4.8 8.0 0.00 0.00 0.00 70 1014.0
20260505003401 19 161 4.8 8.0 0.00 0.00 0.00 69 1014.0
20260505002857 20 160 6.4 11.3 0.00 0.00 0.00 70 1013.9
20260505002354 20 173 6.4 11.3 0.00 0.00 0.00 70 1013.9
20260505001853 20 140 4.8 8.0 0.00 0.00 0.00 69 1013.9
20260505001349 20 187 4.8 9.7 0.00 0.00 0.00 69 1013.9
20260505000847 20 172 8.0 11.3 0.00 0.00 0.00 69 1013.5
20260505000344 20 196 4.8 4.8 0.00 0.00 0.00 69 1013.5
20260504235841 20 170 8.0 11.3 0.00 0.00 0.00 69 1013.4
20260504235338 20 184 8.0 12.9 0.00 0.00 0.00 69 1013.5
20260504234834 20 197 8.0 9.7 0.00 0.00 0.00 68 1013.3
20260504234332 20 180 6.4 9.7 0.00 0.00 0.00 69 1013.1
20260504233829 20 204 6.4 9.7 0.00 0.00 0.00 68 1013.1
20260504233324 20 187 4.8 8.0 0.00 0.00 0.00 68 1013.0
20260504232821 20 204 6.4 8.0 0.00 0.00 0.00 68 1012.8
20260504232318 20 187 8.0 11.3 0.00 0.00 0.00 69 1012.8
20260504231815 20 196 6.4 8.0 0.00 0.00 0.00 66 1012.9
20260504231312 20 187 6.4 9.7 0.00 0.00 0.00 67 1012.9
20260504230808 21 140 9.7 14.5 0.00 0.00 0.00 66 1013.0
20260504230306 21 210 11.3 16.1 0.00 0.00 0.00 65 1012.7
20260504225805 21 169 9.7 12.9 0.00 0.00 0.00 66 1012.7
20260504225300 21 180 8.0 9.7 0.00 0.00 0.00 67 1012.9
20260504224758 21 162 14.5 16.1 0.00 0.00 0.00 63 1012.4
20260504224255 21 192 14.5 16.1 0.00 0.00 0.00 63 1012.6
20260504223751 21 184 8.0 11.3 0.00 0.00 0.00 65 1012.6
20260504223247 21 205 8.0 11.3 0.00 0.00 0.00 65 1012.9
20260504222744 21 166 11.3 16.1 0.00 0.00 0.00 64 1012.7
20260504222240 21 167 14.5 17.7 0.00 0.00 0.00 64 1012.8
20260504221738 21 194 4.8 8.0 0.00 0.00 0.00 62 1012.7
20260504221235 21 213 4.8 8.0 0.00 0.00 0.00 65 1012.8
20260504220732 21 165 6.4 8.0 0.00 0.00 0.00 66 1012.8
20260504220229 21 184 6.4 8.0 0.00 0.00 0.00 65 1012.6
20260504215726 22 178 4.8 4.8 0.00 0.00 0.00 64 1012.9
20260504215223 22 176 8.0 11.3 0.00 0.00 0.00 63 1012.8
20260504214719 21 195 8.0 9.7 0.00 0.00 0.00 66 1012.8
20260504214215 21 175 4.8 4.8 0.00 0.00 0.00 66 1012.8
20260504213712 22 174 9.7 12.9 0.00 0.00 0.00 63 1012.9
20260504213209 22 161 4.8 4.8 0.00 0.00 0.00 66 1012.9
20260504212706 22 137 6.4 9.7 0.00 0.00 0.00 64 1012.7
20260504212202 22 178 8.0 9.7 0.00 0.00 0.00 65 1012.9
20260504211700 22 149 4.8 4.8 0.00 0.00 0.00 66 1013.1
20260504211155 22 157 8.0 9.7 0.00 0.00 0.00 66 1012.9
20260504210653 22 192 12.9 14.5 0.00 0.00 0.00 64 1013.0
20260504210150 22 170 8.0 9.7 0.00 0.00 0.00 63 1013.0
20260504205647 22 159 4.8 4.8 0.00 0.00 0.00 61 1012.8
20260504205144 22 162 4.8 8.0 0.00 0.00 0.00 60 1012.9
20260504204643 22 160 4.8 4.8 0.00 0.00 0.00 63 1012.9
20260504204141 22 162 4.8 4.8 0.00 0.00 0.00 64 1012.9
20260504203640 23 236 4.8 4.8 0.00 0.00 0.00 57 1013.0
20260504203137 22 169 6.4 8.0 0.00 0.00 0.00 63 1012.9
20260504202637 23 153 3.2 3.2 0.00 0.00 0.00 63 1013.1
20260504202134 23 163 4.8 4.8 0.00 0.00 0.00 59 1013.2
20260504201631 23 178 8.0 9.7 0.00 0.00 0.00 54 1013.1
20260504201129 24 198 4.8 4.8 0.00 0.00 0.00 50 1013.1
20260504200626 25 149 9.7 11.3 0.00 0.00 0.00 50 1013.1
20260504200122 25 191 8.0 11.3 0.00 0.00 0.00 51 1013.0
20260504195618 24 217 4.8 4.8 0.00 0.00 0.00 53 1012.9
20260504195115 24 176 4.8 8.0 0.00 0.00 0.00 50 1013.0
20260504194612 24 180 6.4 9.7 0.00 0.00 0.00 53 1013.1
20260504194107 24 241 1.6 3.2 0.00 0.00 0.00 49 1013.0
20260504193604 24 210 3.2 4.8 0.00 0.00 0.00 48 1013.0
20260504193102 25 175 4.8 9.7 0.00 0.00 0.00 51 1013.2
20260504192600 25 189 1.6 4.8 0.00 0.00 0.00 43 1013.0
20260504192058 25 217 3.2 3.2 0.00 0.00 0.00 49 1013.4
20260504191556 24 180 3.2 3.2 0.00 0.00 0.00 53 1013.5
20260504191052 23 185 4.8 8.0 0.00 0.00 0.00 53 1013.5
20260504190548 23 149 4.8 4.8 0.00 0.00 0.00 54 1013.8
20260504190044 25 156 6.4 9.7 0.00 0.00 0.00 51 1013.6
20260504185542 24 182 4.8 4.8 0.00 0.00 0.00 52 1013.6
20260504185038 23 195 3.2 3.2 0.00 0.00 0.00 49 1014.1
20260504184533 24 166 4.8 8.0 0.00 0.00 0.00 49 1014.0
20260504184029 23 131 4.8 4.8 0.00 0.00 0.00 51 1014.0
20260504183526 24 178 1.6 1.6 0.00 0.00 0.00 48 1014.2
20260504183025 24 119 3.2 3.2 0.00 0.00 0.00 47 1014.3
20260504182521 23 158 3.2 4.8 0.00 0.00 0.00 47 1014.4
20260504182018 23 184 0.0 1.6 0.00 0.00 0.00 47 1014.4
20260504181515 23 221 3.2 8.0 0.00 0.00 0.00 50 1014.5
20260504181014 23 172 1.6 4.8 0.00 0.00 0.00 52 1014.3
20260504180512 23 84 1.6 3.2 0.00 0.00 0.00 50 1014.6
20260504180011 23 132 1.6 3.2 0.00 0.00 0.00 55 1014.6
20260504175508 23 160 4.8 4.8 0.00 0.00 0.00 53 1014.6
20260504175005 23 185 4.8 4.8 0.00 0.00 0.00 50 1014.8
20260504174502 23 89 1.6 3.2 0.00 0.00 0.00 51 1014.9
20260504173959 23 159 6.4 8.0 0.00 0.00 0.00 53 1015.0
20260504173456 22 120 1.6 1.6 0.00 0.00 0.00 54 1015.1
20260504172953 22 137 4.8 4.8 0.00 0.00 0.00 60 1015.2
20260504172449 22 169 4.8 8.0 0.00 0.00 0.00 57 1015.1
20260504171946 22 128 1.6 3.2 0.00 0.00 0.00 56 1015.2
20260504171443 22 151 3.2 3.2 0.00 0.00 0.00 56 1015.2
20260504170940 22 160 3.2 3.2 0.00 0.00 0.00 57 1015.3
20260504170436 22 157 4.8 4.8 0.00 0.00 0.00 58 1015.6
20260504160355 21 170 6.4 8.0 0.00 0.00 0.00 58 1016.0